Darlington, SC

8:08 AM EDT on April 25, 2017 (GMT -0400)
Darlington County Jetport

Weather History for KUDG - January, 2014

Change the Weather History Date:

Friday, January 24, 2014

  Actual Average (KFLO) Record (KFLO)
Temperature  
Mean Temperature 24 °F -  
Max Temperature 30 °F 58 °F 84 °F (1974)
Min Temperature 17 °F 35 °F 13 °F (2003)
Degree Days  
Heating Degree Days 42    
Moisture  
Dew Point 0 °F    
Average Humidity 39    
Maximum Humidity 68    
Minimum Humidity 21    
Precipitation  
Precipitation 0.00 in - - ()
Sea Level Pressure  
Sea Level Pressure 30.49 in    
Wind  
Wind Speed 8 mph (NNW)    
Max Wind Speed 16 mph    
Max Gust Speed 24 mph    
Visibility 10 miles    
Events      
Averages and records for this station are not official NWS values.
T = Trace of Precipitation, MM = Missing Value Source: NWS Daily Summary

Daily Weather History Graph

Daily Weather History Graph

Search for Another Location

Airport or City:

Trip Planner

Search our weather history database for the weather conditions in past years. The results will help you decide how hot, cold, wet, or windy it might be!

Date:

Astronomy

Jan. 24, 2014 Rise Set
Actual Time 7:22 AM EST 5:41 PM EST
Civil Twilight 6:55 AM EST 6:08 PM EST
Nautical Twilight 6:25 AM EST 6:38 PM EST
Astronomical Twilight 5:55 AM EST 7:08 PM EST
Moon 12:51 AM EST (1/24) 11:56 AM EST (1/24)
Length of Visible Light 11h 12m
Length of Day
10h 18m
Last Quarter, 45% of the Moon is Illuminated
Jan 24
Last Quarter
Jan 30
New
Feb 6
First Quarter
Feb 14
Full
Feb 22
Last Quarter

Hourly Weather History & Observations

Time (EST) Temp. Windchill Dew Point Humidity Pressure Visibility Wind Dir Wind Speed Gust Speed Precip Events Conditions
12:15 AM 28.4 °F 19.1 °F 8.6 °F 43% 30.38 in 10.0 mi North 10.4 mph - N/A   Clear
12:35 AM 28.4 °F 21.2 °F 8.6 °F 43% 30.39 in 10.0 mi North 6.9 mph - N/A   Clear
12:55 AM 28.4 °F 20.4 °F 8.6 °F 43% 30.40 in 10.0 mi North 8.1 mph - N/A   Clear
1:15 AM 28.4 °F 19.7 °F 8.6 °F 43% 30.41 in 10.0 mi North 9.2 mph - N/A   Clear
1:35 AM 28.4 °F 21.2 °F 8.6 °F 43% 30.42 in 10.0 mi North 6.9 mph - N/A   Scattered Clouds
1:55 AM 28.4 °F 18.0 °F 8.6 °F 43% 30.44 in 10.0 mi NNE 12.7 mph - N/A   Mostly Cloudy
2:15 AM 28.4 °F 16.6 °F 6.8 °F 40% 30.44 in 10.0 mi North 16.1 mph 19.6 mph N/A   Mostly Cloudy
2:35 AM 28.4 °F 16.6 °F 5.0 °F 37% 30.45 in 10.0 mi NNE 16.1 mph 24.2 mph N/A   Mostly Cloudy
2:55 AM 26.6 °F 14.7 °F 5.0 °F 40% 30.46 in 10.0 mi North 15.0 mph 24.2 mph N/A   Scattered Clouds
3:15 AM 26.6 °F 16.2 °F 5.0 °F 40% 30.48 in 10.0 mi North 11.5 mph 18.4 mph N/A   Scattered Clouds
3:35 AM 26.6 °F 15.2 °F 5.0 °F 40% 30.49 in 10.0 mi NNW 13.8 mph 19.6 mph N/A   Scattered Clouds
3:55 AM 24.8 °F 11.9 °F 3.2 °F 40% 30.50 in 10.0 mi NNW 16.1 mph 23.0 mph N/A   Scattered Clouds
4:15 AM 24.8 °F 12.4 °F 1.4 °F 36% 30.51 in 10.0 mi North 15.0 mph 20.7 mph N/A   Mostly Cloudy
4:35 AM 24.8 °F 12.4 °F 1.4 °F 36% 30.52 in 10.0 mi North 15.0 mph 19.6 mph N/A   Scattered Clouds
4:55 AM 23.0 °F 10.1 °F -0.4 °F 36% 30.54 in 10.0 mi North 15.0 mph 21.9 mph N/A   Clear
5:15 AM 21.2 °F 10.9 °F -0.4 °F 39% 30.54 in 10.0 mi NNW 9.2 mph - N/A   Clear
5:35 AM 21.2 °F 8.3 °F -2.2 °F 36% 30.55 in 10.0 mi NNW 13.8 mph 21.9 mph N/A   Clear
5:55 AM 19.4 °F 6.6 °F -4.0 °F 36% 30.56 in 10.0 mi NNW 12.7 mph 21.9 mph N/A   Clear
6:15 AM 19.4 °F 7.9 °F -5.8 °F 33% 30.58 in 10.0 mi NNW 10.4 mph - N/A   Clear
6:35 AM 19.4 °F 7.2 °F -4.0 °F 36% 30.59 in 10.0 mi NNW 11.5 mph 21.9 mph N/A   Clear
6:55 AM 19.4 °F 8.6 °F -5.8 °F 33% 30.60 in 10.0 mi NNW 9.2 mph 18.4 mph N/A   Clear
7:15 AM 17.6 °F 5.7 °F -5.8 °F 35% 30.62 in 10.0 mi NNW 10.4 mph - N/A   Clear
7:35 AM 17.6 °F 6.4 °F -4.0 °F 38% 30.63 in 10.0 mi North 9.2 mph 16.1 mph N/A   Clear
7:55 AM 17.6 °F 6.4 °F -4.0 °F 38% 30.63 in 10.0 mi North 9.2 mph - N/A   Clear
8:15 AM 19.4 °F 9.5 °F -2.2 °F 39% 30.62 in 10.0 mi North 8.1 mph - N/A   Clear
8:35 AM 19.4 °F 7.9 °F -2.2 °F 39% 30.63 in 10.0 mi North 10.4 mph - N/A   Clear
8:55 AM 19.4 °F 7.9 °F -2.2 °F 39% 30.63 in 10.0 mi North 10.4 mph - N/A   Clear
9:15 AM 19.4 °F 6.6 °F -4.0 °F 36% 30.63 in 10.0 mi North 12.7 mph 18.4 mph N/A   Clear
9:35 AM 21.2 °F 10.9 °F -4.0 °F 33% 30.63 in 10.0 mi NNE 9.2 mph - N/A   Clear
9:55 AM 21.2 °F 11.7 °F -2.2 °F 36% 30.63 in 10.0 mi NNE 8.1 mph - N/A   Clear
10:15 AM 23.0 °F 14.7 °F -2.2 °F 33% 30.63 in 10.0 mi NE 6.9 mph - N/A   Clear
10:35 AM 21.2 °F 12.6 °F -2.2 °F 36% 30.63 in 10.0 mi NNE 6.9 mph - N/A   Clear
10:55 AM 23.0 °F 13.1 °F -2.2 °F 33% 30.62 in 10.0 mi NW 9.2 mph - N/A   Clear
11:15 AM 24.8 °F 16.9 °F -2.2 °F 31% 30.61 in 10.0 mi NW 6.9 mph - N/A   Clear
11:35 AM 24.8 °F 19.1 °F -2.2 °F 31% 30.60 in 10.0 mi NE 4.6 mph - N/A   Clear
11:55 AM 24.8 °F 16.9 °F -2.2 °F 31% 30.59 in 10.0 mi NNW 6.9 mph - N/A   Clear
12:15 PM 24.8 °F 19.1 °F -4.0 °F 28% 30.57 in 10.0 mi NW 4.6 mph - N/A   Clear
12:35 PM 26.6 °F 16.8 °F -2.2 °F 29% 30.56 in 10.0 mi NNW 10.4 mph - N/A   Clear
12:55 PM 26.6 °F 17.5 °F -4.0 °F 26% 30.55 in 10.0 mi North 9.2 mph - N/A   Clear
1:15 PM 28.4 °F 21.2 °F -5.8 °F 23% 30.54 in 10.0 mi WNW 6.9 mph - N/A   Clear
1:35 PM 28.4 °F 20.4 °F -4.0 °F 25% 30.53 in 10.0 mi North 8.1 mph - N/A   Clear
1:55 PM 28.4 °F 21.2 °F -5.8 °F 23% 30.52 in 10.0 mi WNW 6.9 mph - N/A   Clear
2:15 PM 28.4 °F 20.4 °F -5.8 °F 23% 30.51 in 10.0 mi West 8.1 mph - N/A   Clear
2:35 PM 30.2 °F 25.4 °F -2.2 °F 25% 30.50 in 10.0 mi North 4.6 mph - N/A   Clear
2:55 PM 28.4 °F - -4.0 °F 25% 30.49 in 10.0 mi Calm Calm - N/A   Clear
3:15 PM 28.4 °F 20.4 °F -5.8 °F 23% 30.48 in 10.0 mi North 8.1 mph - N/A   Clear
3:35 PM 30.2 °F 23.4 °F -5.8 °F 21% 30.47 in 10.0 mi NW 6.9 mph - N/A   Clear
3:55 PM 30.2 °F 26.7 °F -5.8 °F 21% 30.46 in 10.0 mi NNW 3.5 mph - N/A   Clear
4:15 PM 28.4 °F 23.3 °F -5.8 °F 23% 30.46 in 10.0 mi NW 4.6 mph - N/A   Clear
4:35 PM 30.2 °F - -5.8 °F 21% 30.45 in 10.0 mi Calm Calm - N/A   Clear
4:55 PM 28.4 °F - -5.8 °F 23% 30.45 in 10.0 mi Calm Calm - N/A   Clear
5:15 PM 28.4 °F - -5.8 °F 23% 30.43 in 10.0 mi Calm Calm - N/A   Clear
5:35 PM 26.6 °F - -5.8 °F 24% 30.43 in 10.0 mi Calm Calm - N/A   Clear
5:55 PM 26.6 °F - -5.8 °F 24% 30.42 in 10.0 mi Calm Calm - N/A   Clear
6:15 PM 24.8 °F - -0.4 °F 34% 30.42 in 10.0 mi Calm Calm - N/A   Clear
6:35 PM 24.8 °F - 1.4 °F 36% 30.41 in 10.0 mi Calm Calm - N/A   Clear
6:55 PM 23.0 °F - 1.4 °F 39% 30.41 in 10.0 mi Calm Calm - N/A   Clear
7:15 PM 21.2 °F - 5.0 °F 50% 30.41 in 10.0 mi Calm Calm - N/A   Clear
7:35 PM 19.4 °F - 1.4 °F 46% 30.41 in 10.0 mi Calm Calm - N/A   Clear
7:55 PM 19.4 °F 14.3 °F 10.4 °F 68% 30.41 in 10.0 mi SW 3.5 mph - N/A   Clear
8:15 PM 19.4 °F - 6.8 °F 58% 30.40 in 10.0 mi Calm Calm - N/A   Clear
8:35 PM 19.4 °F - 6.8 °F 58% 30.40 in 10.0 mi Calm Calm - N/A   Clear
8:55 PM 17.6 °F - 8.6 °F 68% 30.39 in 10.0 mi Calm Calm - N/A   Clear
9:15 PM 17.6 °F - 8.6 °F 68% 30.39 in 10.0 mi Calm Calm - N/A   Clear
9:35 PM 17.6 °F - 6.8 °F 63% 30.38 in 10.0 mi Calm Calm - N/A   Clear
9:55 PM 17.6 °F - 6.8 °F 63% 30.38 in 10.0 mi Calm Calm - N/A   Clear
10:15 PM 17.6 °F 12.3 °F 8.6 °F 68% 30.37 in 10.0 mi South 3.5 mph - N/A   Clear
10:35 PM 17.6 °F 12.3 °F 8.6 °F 68% 30.36 in 10.0 mi South 3.5 mph - N/A   Clear
10:55 PM 17.6 °F 12.3 °F 6.8 °F 63% 30.36 in 10.0 mi SSW 3.5 mph - N/A   Clear
11:15 PM 17.6 °F 12.3 °F 6.8 °F 63% 30.35 in 10.0 mi South 3.5 mph - N/A   Clear
11:35 PM 17.6 °F 12.3 °F 3.2 °F 53% 30.34 in 10.0 mi SSE 3.5 mph - N/A   Clear
11:55 PM 17.6 °F 9.3 °F 6.8 °F 63% 30.33 in 10.0 mi South 5.8 mph - N/A   Clear